Regional Weather Roundup
Issued by NWS Northern Indiana

Home | Current Version | Previous Version | Graphics & Text | Print | Product List | Glossary On
Versions: 1 2 3 4 5 6 7 8 9 10 11 12 13 14 15 16 17 18 19 20 21 22 23 24 25 26 27 28 29 30 31 32 33 34 35 36 37 38 39 40 41 42 43 44 45 46 47 48 49 50
000
ASUS43 KIWX 042200
RWRIWX

KIWX WEATHER ROUNDUP
NATIONAL WEATHER SERVICE NORTHERN INDIANA
600 PM EDT FRI SEP 04 2015

NOTE: "FAIR" INDICATES FEW OR NO CLOUDS BELOW 12,000 FEET WITH NO
SIGNIFICANT WEATHER AND/OR OBSTRUCTIONS TO VISIBILITY.

* THESE STATIONS ARE NOT UNDER NWS QUALITY CONTROL. THEY ALSO MAY NOT
  REPORT WEATHER SUCH AS PRECIPITATION OR FOG.

INZ001>027-042300-
NORTHERN INDIANA

CITY           SKY/WX    TMP DP  RH WIND       PRES   REMARKS
GARY*          PTSUNNY   77  68  73 NE10      30.02S
SOUTH BEND     CLOUDY    78  69  73 NW8       30.04S
ELKHART*       SUNNY     79  72  78 NW7       30.03R
GOSHEN         CLOUDY    77  70  79 S9        30.04R
ANGOLA*        SUNNY     77  72  83 CALM      30.05R
FORT WAYNE     TSTM      65  62  90 W3        30.06F
PERU/GRISSOM   LGT RAIN  72  68  88 NE9       30.02F

$$
INZ028>050-042300-
CENTRAL INDIANA

CITY           SKY/WX    TMP DP  RH WIND       PRES   REMARKS
LAFAYETTE      CLOUDY    81  65  58 E5        29.99F
KOKOMO*        CLOUDY    73  64  73 N5        30.05F
MUNCIE*        TSTM      71  64  78 NE20G25   30.05S
INDIANAPOLIS   NOT AVBL

$$
MIZ043>046-050>051-056>058-064>065-071>073-077>080-042300-
SOUTHWEST LOWER MICHIGAN

CITY           SKY/WX    TMP DP  RH WIND       PRES   REMARKS
BATTLE CREEK   PTSUNNY   80  66  62 NW6       30.05R
BENTON HARBOR  PTSUNNY   74  66  76 VRB3      30.04R
COLDWATER*     CLOUDY    77  67  71 CALM      30.05R
HILLSDALE*     CLOUDY    78  70  76 W5        30.06R
HOLLAND        PTSUNNY   75  66  73 W5        30.05R
GRAND RAPIDS   CLOUDY    78  67  68 NW5       30.04R
KALAMAZOO      PTSUNNY   80  65  59 NW8       30.04R
STURGIS*       CLOUDY    75  72  88 CALM      30.04R
THREE RIVERS*  FAIR      79  70  73 CALM      30.04R

$$
OHZ001>008-015>018-024>025-042300-
NORTHWEST OHIO

CITY           SKY/WX    TMP DP  RH WIND       PRES   REMARKS
DEFIANCE       CLOUDY    75  66  73 SW3       30.04R
FINDLAY        CLOUDY    71  63  75 S3        30.05R
TOLEDO EXPRESS CLOUDY    78  70  76 SW10      30.03R
TOLEDO METCALF CLOUDY    76  67  73 SW8       30.03R
LIMA           CLOUDY    70  64  81 CALM      30.06R

$$
AND FOR LAKE MICHIGAN COASTAL AND OPEN LAKE BUOY OBSERVATIONS

STATION/POSITION TEMP    WIND        PRES    VSBY  WAVE
                 AIR SEA DIR/SP/G                  HT/PER
                 (F)     (DEG/KT/KT) (MB)    (MI)  (FT/S)
CALUMET HARBOR    73      30/  8/ 10   N/A
MICHIGAN CITY     71      20/  9/ 10   N/A
BURNS HARBOR      73      50/ 11/ 13 1016.9S
SAINT JOSEPH      73     340/  5/  6 1017.9R
SOUTH LAKE BUOY   68 71   10/  8/ 10 1016.6R         1
4 MI NW BRIDGMAN  71 77   40/  8/  8   N/A           1/ 3
MICHIGAN CITY     71 74   50/  6/ 10   N/A           2/ 4

$$
&&



USA.gov is the U.S. government's official web portal to all federal, state and local government web resources and services.